Showing default

HULIANWANG DIGUI-105, 66915

Orbit data source: Space-Track

HULIANWANG DIGUI-105, 66915 is a payload satellite owned by Zhongguo Xingwang (CN) in LEO that was launched on Sat, 06 Dec 2025 UTC via a CHANG ZHENG 8A launch vehicle from the Wenchang Satellite Launch Center (WSC). Payload-class satellites include a variety of spacecraft equipped with specific instruments for various scientific and technological missions. These include communications satellites like Starlink; space stations such as the ISS; scientific satellites like the Hubble; Earth observation satellites from companies like Planet Labs, Umbra, and HawkEye 360; GPS; miniature CubeSats for education and research; and military/defense satellites.

Loading next visibility...
Identifier
66915, 2025-285A
Orbit
LEO
Country
Flag of CNCN / PRC
Related business
Manufacturer
CAST
Mission
Operational Civil Communications
Bus & Motor
XINGWANG C, Unknown motor
Mass
~700 kg wet, ~700 kg dry
Launch date (UTC)
2025-12-06 (6 months ago)
Launch vehicle
CHANG ZHENG 8A
Launch site
Wenchang Satellite Launch Center (WSC)
Object type
Payload
Rocket body
Debris
Shape & HBR
Box + 2 Pan, 14.5 m
Radar Cross Section
5.935 m², Large (>1 m²)

Expand to show TLE details & history
Last TLE update: 16 hours ago

TLE from 16 hours ago
0 HULIANWANG DIGUI-105
1 66915U 25285A   26171.18324042 -.00000110  00000-0  29480-4 0  9990
2 66915  50.0036 135.4742 0001141 301.6827  58.3934 13.29321174 26455
Epoch: 2026-06-20T04:23Z
TLE epoch observation values (Epoch: 2026-06-20T04:23:51.972Z)
Latitude
0.00001°
Longitude
161.10613°
Altitude
1,149.381 km
Speed
7.28 km/s
True Right ascension
09h 01m 53s
True Declination
0° 00' 00"
Sunlit
Object was in daylight at epoch
Visualization orbit readout
Latitude
Unknown
Longitude
Unknown
Altitude
Unknown
Speed
Unknown
Apparent Right ascension
Unknown
Apparent Declination
Unknown
Sunlit
N/A
Visualization observer readout
Local Sidereal Time
07:14:53
Azimuth
Unknown
Elevation
Unknown
Doppler factor
Unknown
Orbital elements
Apogee altitude
1,150.889 km
Perigee altitude
1,149.171 km
Semi-major axis
7,528.167 km
Eccentricity
0.00011
Inclination
50.0036°
RAAN
135.4742°
Arg. of periapsis
301.6827°
True anomaly
58.40454°
Mean anomaly
58.3934°
Eccentric anomaly
58.39897°
Mean motion
3.32284 °/min
Orbital period
108.34 mins
BSTAR
0.00002948
Loading maneuver chart data...
Computing Atmospheric mass density...
Loading historical data...
Loading historical data...
Loading historical data...
Loading historical data...
Loading historical data...
Loading historical data...
Loading historical data...

Documentation

Showing up to 5 results
|